XAHVH MMTO-MMDO

Flight info

Callsign XAHVH
Flight time 1h 42m
Altitude 24000
Route SEBON3C SEBON UT125 MLM UJ63 DGO
Aircraft PC12/L-SDFGRWY/S

Departure

Time 2026-05-03 20:23
Airport Adolfo López Mateos International Airport (MMTO)

Arrival

Time 2026-05-03 22:05
Airport General Guadalupe Victoria International Airport (MMDO)
Time Latitude Longitude Altitude Speed Heading
2026-05-03 20:23 19.18511 -99.49798 13061 ft 208 kts 163°
2026-05-03 20:23 19.17091 -99.49774 13369 ft 209 kts 197°
2026-05-03 20:23 19.15910 -99.50660 13673 ft 212 kts 232°
2026-05-03 20:24 19.15443 -99.52130 13995 ft 216 kts 266°
2026-05-03 20:24 19.15631 -99.53709 14292 ft 214 kts 273°
2026-05-03 20:24 19.16114 -99.55192 14585 ft 216 kts 296°
2026-05-03 20:24 19.16827 -99.56588 14891 ft 215 kts 292°
2026-05-03 20:25 19.17350 -99.58043 15182 ft 213 kts 282°
2026-05-03 20:25 19.17546 -99.59606 15496 ft 212 kts 270°
2026-05-03 20:25 19.17543 -99.61138 15792 ft 210 kts 267°
2026-05-03 20:25 19.17543 -99.62687 16089 ft 210 kts 269°
2026-05-03 20:26 19.17591 -99.64229 16392 ft 210 kts 275°
2026-05-03 20:26 19.18024 -99.65705 16695 ft 211 kts 292°
2026-05-03 20:26 19.18643 -99.67120 16993 ft 212 kts 292°
2026-05-03 20:26 19.19258 -99.68539 17294 ft 213 kts 292°
2026-05-03 20:27 19.19871 -99.69967 17593 ft 213 kts 292°
2026-05-03 20:27 19.20481 -99.71388 17896 ft 212 kts 292°
2026-05-03 20:27 19.21093 -99.72812 18200 ft 212 kts 293°
2026-05-03 20:27 19.21703 -99.74234 18500 ft 213 kts 293°
2026-05-03 20:28 19.22317 -99.75665 18796 ft 214 kts 293°
2026-05-03 20:28 19.22933 -99.77099 19101 ft 214 kts 293°
2026-05-03 20:28 19.23549 -99.78534 19390 ft 213 kts 293°
2026-05-03 20:28 19.24161 -99.79962 19695 ft 214 kts 293°
2026-05-03 20:29 19.24666 -99.81426 19998 ft 212 kts 286°
2026-05-03 20:29 19.25132 -99.82891 20302 ft 213 kts 287°
2026-05-03 20:29 19.25612 -99.84369 20602 ft 212 kts 287°
2026-05-03 20:29 19.26091 -99.85851 20891 ft 213 kts 287°
2026-05-03 20:30 19.26568 -99.87335 21191 ft 213 kts 287°
2026-05-03 20:30 19.27049 -99.88832 21497 ft 213 kts 287°
2026-05-03 20:30 19.27521 -99.90299 21796 ft 213 kts 287°
2026-05-03 20:30 19.28000 -99.91791 22097 ft 215 kts 287°
2026-05-03 20:31 19.28486 -99.93301 22403 ft 217 kts 287°
2026-05-03 20:31 19.28973 -99.94817 22701 ft 218 kts 287°
2026-05-03 20:31 19.29463 -99.96343 22995 ft 219 kts 287°
2026-05-03 20:31 19.29952 -99.97866 23297 ft 218 kts 287°
2026-05-03 20:32 19.30442 -99.99396 23598 ft 219 kts 287°
2026-05-03 20:32 19.30932 -100.00923 23899 ft 219 kts 287°
2026-05-03 20:32 19.31415 -100.02431 24195 ft 219 kts 287°
2026-05-03 20:32 19.31912 -100.03984 24395 ft 225 kts 287°
2026-05-03 20:33 19.32429 -100.05596 24398 ft 237 kts 287°
2026-05-03 20:33 19.32968 -100.07275 24401 ft 245 kts 287°
2026-05-03 20:33 19.33523 -100.09010 24406 ft 252 kts 287°
2026-05-03 20:33 19.34088 -100.10774 24408 ft 255 kts 287°
2026-05-03 20:34 19.34664 -100.12561 24409 ft 257 kts 289°
2026-05-03 20:34 19.35527 -100.14205 24405 ft 262 kts 304°
2026-05-03 20:34 19.36649 -100.15747 24408 ft 265 kts 305°
2026-05-03 20:34 19.37778 -100.17291 24406 ft 266 kts 305°
2026-05-03 20:35 19.38909 -100.18851 24408 ft 267 kts 305°
2026-05-03 20:35 19.40036 -100.20415 24405 ft 268 kts 305°
2026-05-03 20:35 19.41160 -100.21986 24407 ft 268 kts 304°
2026-05-03 20:35 19.42284 -100.23565 24407 ft 268 kts 304°
2026-05-03 20:36 19.43405 -100.25141 24405 ft 269 kts 306°
2026-05-03 20:36 19.44736 -100.26542 24403 ft 271 kts 317°
2026-05-03 20:36 19.46238 -100.27749 24402 ft 271 kts 320°
2026-05-03 20:36 19.47234 -100.28540 24403 ft 270 kts 319°
2026-05-03 20:37 19.48681 -100.29801 24400 ft 268 kts 316°
2026-05-03 20:37 19.50086 -100.31091 24401 ft 267 kts 316°
2026-05-03 20:37 19.51497 -100.32361 24401 ft 266 kts 317°
2026-05-03 20:37 19.52920 -100.33621 24400 ft 266 kts 317°
2026-05-03 20:38 19.54341 -100.34882 24403 ft 266 kts 317°
2026-05-03 20:38 19.55757 -100.36145 24401 ft 266 kts 317°
2026-05-03 20:38 19.57176 -100.37414 24341 ft 268 kts 317°
2026-05-03 20:38 19.58611 -100.38701 24273 ft 270 kts 317°
2026-05-03 20:39 19.60047 -100.39983 24274 ft 269 kts 317°
2026-05-03 20:39 19.61477 -100.41257 24272 ft 268 kts 317°
2026-05-03 20:39 19.62906 -100.42533 24272 ft 268 kts 317°
2026-05-03 20:39 19.64334 -100.43808 24272 ft 268 kts 317°
2026-05-03 20:40 19.65743 -100.45067 24271 ft 267 kts 317°
2026-05-03 20:40 19.67164 -100.46336 24270 ft 266 kts 317°
2026-05-03 20:40 19.68581 -100.47602 24271 ft 266 kts 317°
2026-05-03 20:40 19.69996 -100.48867 24270 ft 266 kts 317°
2026-05-03 20:41 19.71415 -100.50136 24270 ft 266 kts 317°
2026-05-03 20:41 19.72827 -100.51398 24270 ft 265 kts 317°
2026-05-03 20:41 19.74240 -100.52662 24269 ft 265 kts 316°
2026-05-03 20:41 19.75649 -100.53923 24270 ft 265 kts 316°
2026-05-03 20:42 19.77063 -100.55188 24271 ft 265 kts 317°
2026-05-03 20:42 19.78472 -100.56449 24269 ft 265 kts 317°
2026-05-03 20:42 19.79881 -100.57711 24269 ft 265 kts 317°
2026-05-03 20:42 19.81288 -100.58971 24267 ft 263 kts 317°
2026-05-03 20:43 19.82685 -100.60222 24269 ft 263 kts 317°
2026-05-03 20:43 19.84071 -100.61464 24270 ft 264 kts 317°
2026-05-03 20:43 19.85479 -100.62725 24268 ft 265 kts 317°
2026-05-03 20:43 19.86890 -100.63990 24269 ft 265 kts 317°
2026-05-03 20:44 19.88299 -100.65252 24268 ft 265 kts 317°
2026-05-03 20:44 19.89708 -100.66516 24270 ft 264 kts 317°
2026-05-03 20:44 19.91112 -100.67776 24268 ft 264 kts 317°
2026-05-03 20:44 19.92523 -100.69042 24272 ft 265 kts 317°
2026-05-03 20:45 19.93929 -100.70304 24268 ft 265 kts 317°
2026-05-03 20:45 19.95341 -100.71571 24270 ft 265 kts 317°
2026-05-03 20:45 19.96752 -100.72838 24268 ft 265 kts 317°
2026-05-03 20:45 19.98154 -100.74098 24269 ft 264 kts 317°
2026-05-03 20:46 19.99563 -100.75363 24271 ft 264 kts 317°
2026-05-03 20:46 20.00947 -100.76608 24269 ft 264 kts 317°
2026-05-03 20:46 20.02365 -100.77881 24270 ft 264 kts 317°
2026-05-03 20:46 20.03769 -100.79144 24270 ft 264 kts 317°
2026-05-03 20:47 20.05150 -100.80386 24268 ft 264 kts 317°
2026-05-03 20:47 20.06555 -100.81650 24270 ft 264 kts 317°
2026-05-03 20:47 20.07956 -100.82910 24268 ft 264 kts 317°
2026-05-03 20:47 20.09353 -100.84167 24270 ft 263 kts 317°
2026-05-03 20:48 20.10757 -100.85431 24268 ft 263 kts 317°
2026-05-03 20:48 20.12157 -100.86691 24270 ft 264 kts 317°
2026-05-03 20:48 20.13558 -100.87953 24271 ft 263 kts 315°
2026-05-03 20:48 20.14951 -100.89206 24272 ft 262 kts 315°
2026-05-03 20:49 20.16335 -100.90454 24271 ft 261 kts 315°
2026-05-03 20:49 20.17699 -100.91684 24271 ft 260 kts 315°
2026-05-03 20:49 20.19092 -100.92939 24272 ft 259 kts 315°
2026-05-03 20:49 20.20453 -100.94167 24270 ft 259 kts 315°
2026-05-03 20:50 20.21826 -100.95405 24272 ft 259 kts 315°
2026-05-03 20:50 20.23205 -100.96649 24270 ft 259 kts 315°
2026-05-03 20:50 20.24578 -100.97888 24271 ft 258 kts 315°
2026-05-03 20:50 20.25949 -100.99125 24270 ft 258 kts 315°
2026-05-03 20:51 20.27319 -101.00362 24270 ft 258 kts 315°
2026-05-03 20:51 20.28686 -101.01596 24271 ft 258 kts 315°
2026-05-03 20:51 20.30053 -101.02831 24269 ft 257 kts 315°
2026-05-03 20:51 20.31418 -101.04064 24270 ft 257 kts 315°
2026-05-03 20:52 20.32785 -101.05299 24270 ft 257 kts 315°
2026-05-03 20:52 20.34149 -101.06532 24270 ft 257 kts 315°
2026-05-03 20:52 20.35497 -101.07750 24269 ft 257 kts 315°
2026-05-03 20:52 20.36881 -101.09001 24270 ft 257 kts 314°
2026-05-03 20:53 20.38224 -101.10217 24270 ft 257 kts 315°
2026-05-03 20:53 20.39590 -101.11452 24271 ft 257 kts 315°
2026-05-03 20:53 20.40950 -101.12682 24272 ft 257 kts 314°
2026-05-03 20:53 20.42313 -101.13915 24272 ft 256 kts 314°
2026-05-03 20:54 20.43662 -101.15137 24272 ft 255 kts 314°
2026-05-03 20:54 20.46362 -101.17583 24269 ft 254 kts 314°
2026-05-03 20:54 20.47709 -101.18803 24271 ft 253 kts 314°
2026-05-03 20:55 20.49054 -101.20022 24271 ft 253 kts 314°
2026-05-03 20:55 20.50377 -101.21221 24270 ft 253 kts 314°
2026-05-03 20:55 20.51720 -101.22439 24269 ft 253 kts 314°
2026-05-03 20:55 20.53066 -101.23660 24271 ft 254 kts 314°
2026-05-03 20:56 20.54415 -101.24884 24270 ft 255 kts 314°
2026-05-03 20:56 20.55771 -101.26114 24272 ft 255 kts 314°
2026-05-03 20:56 20.57122 -101.27339 24270 ft 256 kts 314°
2026-05-03 20:56 20.58478 -101.28571 24272 ft 256 kts 314°
2026-05-03 20:57 20.59834 -101.29802 24272 ft 256 kts 314°
2026-05-03 20:57 20.61191 -101.31034 24273 ft 257 kts 314°
2026-05-03 20:57 20.62558 -101.32276 24271 ft 257 kts 314°
2026-05-03 20:57 20.63923 -101.33516 24271 ft 258 kts 314°
2026-05-03 20:58 20.65291 -101.34759 24273 ft 258 kts 314°
2026-05-03 20:58 20.66538 -101.35892 24271 ft 258 kts 314°
2026-05-03 20:58 20.67884 -101.37116 24272 ft 258 kts 314°
2026-05-03 20:58 20.69251 -101.38359 24273 ft 258 kts 314°
2026-05-03 20:59 20.70613 -101.39598 24272 ft 258 kts 314°
2026-05-03 20:59 20.71981 -101.40844 24275 ft 258 kts 314°
2026-05-03 20:59 20.73351 -101.42090 24273 ft 258 kts 314°
2026-05-03 20:59 20.74717 -101.43333 24274 ft 258 kts 314°
2026-05-03 21:00 20.76084 -101.44578 24274 ft 258 kts 314°
2026-05-03 21:00 20.76990 -101.45403 24274 ft 258 kts 314°
2026-05-03 21:00 20.78816 -101.47066 24273 ft 257 kts 314°
2026-05-03 21:00 20.80180 -101.48309 24274 ft 257 kts 314°
2026-05-03 21:01 20.81542 -101.49551 24274 ft 257 kts 314°
2026-05-03 21:01 20.82905 -101.50793 24274 ft 257 kts 314°
2026-05-03 21:01 20.84269 -101.52037 24274 ft 257 kts 314°
2026-05-03 21:01 20.85631 -101.53280 24274 ft 257 kts 314°
2026-05-03 21:02 20.86993 -101.54522 24274 ft 258 kts 314°
2026-05-03 21:02 20.88360 -101.55770 24274 ft 258 kts 314°
2026-05-03 21:02 20.89708 -101.57000 24275 ft 257 kts 314°
2026-05-03 21:02 20.91069 -101.58243 24275 ft 258 kts 314°
2026-05-03 21:03 20.92450 -101.59504 24273 ft 258 kts 314°
2026-05-03 21:03 20.93797 -101.60735 24271 ft 258 kts 314°
2026-05-03 21:03 20.95166 -101.61985 24274 ft 258 kts 314°
2026-05-03 21:03 20.96531 -101.63233 24273 ft 258 kts 314°
2026-05-03 21:04 20.97895 -101.64480 24274 ft 258 kts 314°
2026-05-03 21:04 20.99257 -101.65726 24273 ft 258 kts 314°
2026-05-03 21:04 21.00619 -101.66972 24274 ft 258 kts 314°
2026-05-03 21:04 21.01984 -101.68220 24273 ft 258 kts 314°
2026-05-03 21:05 21.03349 -101.69470 24273 ft 258 kts 314°
2026-05-03 21:05 21.04695 -101.70701 24273 ft 258 kts 314°
2026-05-03 21:05 21.06058 -101.71949 24272 ft 258 kts 314°
2026-05-03 21:05 21.07420 -101.73197 24274 ft 258 kts 314°
2026-05-03 21:06 21.08785 -101.74447 24271 ft 258 kts 314°
2026-05-03 21:06 21.10148 -101.75696 24273 ft 258 kts 314°
2026-05-03 21:06 21.11508 -101.76942 24274 ft 258 kts 314°
2026-05-03 21:06 21.12873 -101.78194 24273 ft 258 kts 314°
2026-05-03 21:07 21.14240 -101.79447 24275 ft 258 kts 314°
2026-05-03 21:07 21.15605 -101.80699 24273 ft 259 kts 314°
2026-05-03 21:07 21.16973 -101.81954 24273 ft 259 kts 314°
2026-05-03 21:07 21.18326 -101.83195 24273 ft 258 kts 314°
2026-05-03 21:08 21.19688 -101.84445 24275 ft 258 kts 314°
2026-05-03 21:08 21.21057 -101.85702 24271 ft 258 kts 314°
2026-05-03 21:08 21.22421 -101.86955 24275 ft 257 kts 314°
2026-05-03 21:08 21.23776 -101.88198 24272 ft 255 kts 314°
2026-05-03 21:09 21.25124 -101.89437 24271 ft 254 kts 314°
2026-05-03 21:09 21.26465 -101.90670 24272 ft 253 kts 314°
2026-05-03 21:09 21.27802 -101.91898 24272 ft 253 kts 314°
2026-05-03 21:09 21.29138 -101.93127 24270 ft 252 kts 314°
2026-05-03 21:10 21.30450 -101.94333 24272 ft 252 kts 314°
2026-05-03 21:10 21.31778 -101.95556 24272 ft 252 kts 314°
2026-05-03 21:10 21.33108 -101.96780 24268 ft 251 kts 314°
2026-05-03 21:10 21.34453 -101.98017 24270 ft 251 kts 314°
2026-05-03 21:11 21.35760 -101.99220 24272 ft 251 kts 314°
2026-05-03 21:11 21.37081 -102.00437 24272 ft 250 kts 314°
2026-05-03 21:11 21.38404 -102.01656 24271 ft 251 kts 314°
2026-05-03 21:11 21.39745 -102.02891 24269 ft 250 kts 314°
2026-05-03 21:12 21.41048 -102.04092 24271 ft 250 kts 314°
2026-05-03 21:12 21.42350 -102.05294 24270 ft 250 kts 314°
2026-05-03 21:12 21.43667 -102.06509 24270 ft 250 kts 314°
2026-05-03 21:12 21.44986 -102.07725 24271 ft 250 kts 314°
2026-05-03 21:13 21.46308 -102.08945 24270 ft 250 kts 314°
2026-05-03 21:13 21.47630 -102.10163 24272 ft 251 kts 314°
2026-05-03 21:13 21.48957 -102.11387 24269 ft 252 kts 315°
2026-05-03 21:13 21.50288 -102.12615 24268 ft 253 kts 315°
2026-05-03 21:14 21.51626 -102.13850 24269 ft 254 kts 315°
2026-05-03 21:14 21.52967 -102.15089 24271 ft 255 kts 315°
2026-05-03 21:14 21.54317 -102.16336 24270 ft 256 kts 315°
2026-05-03 21:14 21.55664 -102.17580 24270 ft 256 kts 315°
2026-05-03 21:15 21.57014 -102.18828 24269 ft 257 kts 315°
2026-05-03 21:15 21.58372 -102.20084 24272 ft 257 kts 315°
2026-05-03 21:15 21.59725 -102.21334 24271 ft 257 kts 315°
2026-05-03 21:15 21.61066 -102.22575 24271 ft 257 kts 315°
2026-05-03 21:16 21.62425 -102.23832 24273 ft 258 kts 315°
2026-05-03 21:16 21.63809 -102.25049 24271 ft 259 kts 319°
2026-05-03 21:16 21.65300 -102.26147 24270 ft 260 kts 322°
2026-05-03 21:16 21.66791 -102.27241 24271 ft 259 kts 320°
2026-05-03 21:17 21.68254 -102.28376 24270 ft 259 kts 319°
2026-05-03 21:17 21.69237 -102.29150 24271 ft 259 kts 319°
2026-05-03 21:17 21.71171 -102.30650 24269 ft 259 kts 320°
2026-05-03 21:17 21.72634 -102.31778 24269 ft 259 kts 320°
2026-05-03 21:18 21.74096 -102.32908 24270 ft 259 kts 320°
2026-05-03 21:18 21.75553 -102.34037 24270 ft 259 kts 320°
2026-05-03 21:18 21.77020 -102.35174 24244 ft 260 kts 320°
2026-05-03 21:18 21.78487 -102.36309 24245 ft 260 kts 320°
2026-05-03 21:19 21.79952 -102.37443 24244 ft 259 kts 320°
2026-05-03 21:19 21.81402 -102.38567 24244 ft 259 kts 320°
2026-05-03 21:19 21.82864 -102.39701 24243 ft 259 kts 320°
2026-05-03 21:19 21.84321 -102.40829 24243 ft 258 kts 320°
2026-05-03 21:20 21.85784 -102.41964 24243 ft 259 kts 320°
2026-05-03 21:20 21.87248 -102.43099 24245 ft 258 kts 320°
2026-05-03 21:20 21.88708 -102.44232 24244 ft 259 kts 320°
2026-05-03 21:20 21.90174 -102.45369 24244 ft 259 kts 320°
2026-05-03 21:21 21.91639 -102.46506 24244 ft 259 kts 320°
2026-05-03 21:21 21.93082 -102.47627 24244 ft 259 kts 320°
2026-05-03 21:21 21.94542 -102.48760 24243 ft 259 kts 320°
2026-05-03 21:21 21.96000 -102.49894 24247 ft 259 kts 320°
2026-05-03 21:22 21.97464 -102.51031 24245 ft 260 kts 320°
2026-05-03 21:22 21.98932 -102.52172 24238 ft 260 kts 320°
2026-05-03 21:22 22.00401 -102.53313 24243 ft 260 kts 320°
2026-05-03 21:22 22.01391 -102.54083 24241 ft 260 kts 319°
2026-05-03 21:23 22.02857 -102.55223 24239 ft 260 kts 320°
2026-05-03 21:23 22.04303 -102.56349 24242 ft 260 kts 320°
2026-05-03 21:23 22.06260 -102.57871 24244 ft 258 kts 319°
2026-05-03 21:23 22.07708 -102.58996 24234 ft 255 kts 318°
2026-05-03 21:24 22.08654 -102.59733 24243 ft 254 kts 318°
2026-05-03 21:24 22.10566 -102.61223 24241 ft 253 kts 318°
2026-05-03 21:24 22.11986 -102.62330 24241 ft 252 kts 318°
2026-05-03 21:24 22.12927 -102.63063 24240 ft 251 kts 318°
2026-05-03 21:25 22.14343 -102.64167 24238 ft 251 kts 319°
2026-05-03 21:25 22.15752 -102.65265 24241 ft 250 kts 318°
2026-05-03 21:25 22.17163 -102.66366 24241 ft 250 kts 318°
2026-05-03 21:25 22.18576 -102.67467 24234 ft 251 kts 319°
2026-05-03 21:26 22.19989 -102.68569 24240 ft 250 kts 318°
2026-05-03 21:26 22.21400 -102.69670 24239 ft 251 kts 318°
2026-05-03 21:26 22.22814 -102.70774 24242 ft 250 kts 318°
2026-05-03 21:26 22.24223 -102.71874 24241 ft 251 kts 318°
2026-05-03 21:27 22.25631 -102.72974 24238 ft 250 kts 318°
2026-05-03 21:27 22.27041 -102.74075 24244 ft 249 kts 318°
2026-05-03 21:27 22.28431 -102.75162 24240 ft 250 kts 318°
2026-05-03 21:27 22.29842 -102.76264 24237 ft 250 kts 318°
2026-05-03 21:28 22.31249 -102.77364 24241 ft 250 kts 318°
2026-05-03 21:28 22.32656 -102.78464 24241 ft 250 kts 318°
2026-05-03 21:28 22.34066 -102.79567 24258 ft 249 kts 318°
2026-05-03 21:28 22.35466 -102.80662 24259 ft 248 kts 318°
2026-05-03 21:29 22.36859 -102.81753 24260 ft 247 kts 318°
2026-05-03 21:29 22.38251 -102.82842 24268 ft 247 kts 318°
2026-05-03 21:29 22.39647 -102.83936 24266 ft 248 kts 318°
2026-05-03 21:29 22.41043 -102.85029 24265 ft 248 kts 318°
2026-05-03 21:30 22.42447 -102.86129 24266 ft 248 kts 318°
2026-05-03 21:30 22.43846 -102.87225 24266 ft 248 kts 318°
2026-05-03 21:30 22.45240 -102.88318 24263 ft 248 kts 318°
2026-05-03 21:30 22.46164 -102.89042 24264 ft 248 kts 318°
2026-05-03 21:31 22.48030 -102.90505 24264 ft 247 kts 318°
2026-05-03 21:31 22.49426 -102.91600 24260 ft 247 kts 318°
2026-05-03 21:31 22.50816 -102.92690 24269 ft 246 kts 318°
2026-05-03 21:31 22.52203 -102.93779 24268 ft 247 kts 318°
2026-05-03 21:32 22.53597 -102.94875 24267 ft 247 kts 318°
2026-05-03 21:32 22.54990 -102.95970 24268 ft 248 kts 318°
2026-05-03 21:32 22.56385 -102.97065 24266 ft 248 kts 318°
2026-05-03 21:32 22.57761 -102.98145 24268 ft 247 kts 318°
2026-05-03 21:33 22.59156 -102.99242 24269 ft 247 kts 317°
2026-05-03 21:33 22.60552 -103.00339 24269 ft 248 kts 318°
2026-05-03 21:33 22.61945 -103.01434 24267 ft 248 kts 318°
2026-05-03 21:33 22.63337 -103.02528 24268 ft 247 kts 318°
2026-05-03 21:34 22.64731 -103.03625 24268 ft 247 kts 318°
2026-05-03 21:34 22.66122 -103.04720 24267 ft 247 kts 318°
2026-05-03 21:34 22.67511 -103.05812 24264 ft 247 kts 318°
2026-05-03 21:34 22.68902 -103.06907 24268 ft 247 kts 317°
2026-05-03 21:35 22.70291 -103.08001 24266 ft 247 kts 318°
2026-05-03 21:35 22.71666 -103.09083 24269 ft 247 kts 318°
2026-05-03 21:35 22.73062 -103.10181 24270 ft 248 kts 318°
2026-05-03 21:35 22.74452 -103.11277 24264 ft 248 kts 317°
2026-05-03 21:36 22.75848 -103.12377 24269 ft 247 kts 317°
2026-05-03 21:36 22.77238 -103.13473 24266 ft 247 kts 317°
2026-05-03 21:36 22.78628 -103.14571 24268 ft 247 kts 317°
2026-05-03 21:36 22.80018 -103.15666 24266 ft 247 kts 317°
2026-05-03 21:37 22.81404 -103.16759 24269 ft 247 kts 317°
2026-05-03 21:37 22.82795 -103.17857 24268 ft 247 kts 317°
2026-05-03 21:37 22.84184 -103.18954 24267 ft 247 kts 317°
2026-05-03 21:37 22.85573 -103.20050 24267 ft 246 kts 317°
2026-05-03 21:38 22.86961 -103.21147 24268 ft 247 kts 318°
2026-05-03 21:38 22.88337 -103.22234 24269 ft 248 kts 317°
2026-05-03 21:38 22.89731 -103.23335 24321 ft 247 kts 320°
2026-05-03 21:38 22.91130 -103.24441 24243 ft 251 kts 320°
2026-05-03 21:39 22.92555 -103.25569 24123 ft 256 kts 320°
2026-05-03 21:39 22.94006 -103.26715 23996 ft 260 kts 320°
2026-05-03 21:39 22.95473 -103.27874 23873 ft 262 kts 320°
2026-05-03 21:39 22.96954 -103.29045 23749 ft 264 kts 320°
2026-05-03 21:40 22.98439 -103.30222 23623 ft 265 kts 320°
2026-05-03 21:40 22.99928 -103.31403 23497 ft 266 kts 320°
2026-05-03 21:40 23.01429 -103.32591 23374 ft 267 kts 320°
2026-05-03 21:40 23.02932 -103.33781 23248 ft 268 kts 319°
2026-05-03 21:41 23.04439 -103.34975 23125 ft 268 kts 320°
2026-05-03 21:41 23.05947 -103.36171 23000 ft 268 kts 320°
2026-05-03 21:41 23.07454 -103.37365 22870 ft 268 kts 320°
2026-05-03 21:41 23.08959 -103.38559 22743 ft 267 kts 320°
2026-05-03 21:42 23.10438 -103.39731 22625 ft 267 kts 320°
2026-05-03 21:42 23.11943 -103.40924 22497 ft 267 kts 320°
2026-05-03 21:42 23.13438 -103.42111 22372 ft 267 kts 320°
2026-05-03 21:42 23.14939 -103.43303 22245 ft 266 kts 319°
2026-05-03 21:43 23.16435 -103.44491 22119 ft 266 kts 319°
2026-05-03 21:43 23.17928 -103.45677 21998 ft 266 kts 319°
2026-05-03 21:43 23.19423 -103.46865 21873 ft 266 kts 317°
2026-05-03 21:43 23.20914 -103.48052 21748 ft 266 kts 317°
2026-05-03 21:44 23.22411 -103.49242 21622 ft 267 kts 317°
2026-05-03 21:44 23.23914 -103.50437 21489 ft 267 kts 317°
2026-05-03 21:44 23.25417 -103.51632 21370 ft 268 kts 317°
2026-05-03 21:44 23.26917 -103.52826 21244 ft 268 kts 317°
2026-05-03 21:45 23.28411 -103.54015 21120 ft 268 kts 317°
2026-05-03 21:45 23.29918 -103.55216 20996 ft 270 kts 318°
2026-05-03 21:45 23.31431 -103.56421 20872 ft 270 kts 317°
2026-05-03 21:45 23.32955 -103.57635 20749 ft 272 kts 317°
2026-05-03 21:46 23.34487 -103.58856 20618 ft 273 kts 317°
2026-05-03 21:46 23.36020 -103.60078 20492 ft 273 kts 318°
2026-05-03 21:46 23.37553 -103.61299 20375 ft 274 kts 318°
2026-05-03 21:46 23.39096 -103.62532 20169 ft 277 kts 318°
2026-05-03 21:47 23.40665 -103.63786 19942 ft 281 kts 318°
2026-05-03 21:47 23.42249 -103.65050 19714 ft 283 kts 318°
2026-05-03 21:47 23.43841 -103.66317 19487 ft 284 kts 318°
2026-05-03 21:47 23.45438 -103.67593 19264 ft 285 kts 319°
2026-05-03 21:48 23.47021 -103.68858 19038 ft 286 kts 319°
2026-05-03 21:48 23.48627 -103.70142 18813 ft 287 kts 319°
2026-05-03 21:48 23.50238 -103.71430 18591 ft 288 kts 319°
2026-05-03 21:48 23.51856 -103.72722 18355 ft 289 kts 319°
2026-05-03 21:49 23.53480 -103.74019 18080 ft 289 kts 319°
2026-05-03 21:49 23.55102 -103.75318 17807 ft 290 kts 319°
2026-05-03 21:49 23.56730 -103.76620 17530 ft 290 kts 319°
2026-05-03 21:49 23.58357 -103.77925 17255 ft 290 kts 320°
2026-05-03 21:50 23.59984 -103.79229 16979 ft 290 kts 320°
2026-05-03 21:50 23.61606 -103.80528 16705 ft 289 kts 320°
2026-05-03 21:50 23.63229 -103.81828 16436 ft 289 kts 320°
2026-05-03 21:50 23.64822 -103.83104 16157 ft 285 kts 320°
2026-05-03 21:51 23.66433 -103.84394 15877 ft 281 kts 320°
2026-05-03 21:51 23.67984 -103.85637 15603 ft 279 kts 320°
2026-05-03 21:51 23.69533 -103.86884 15331 ft 274 kts 319°
2026-05-03 21:51 23.70877 -103.88315 15059 ft 267 kts 304°
2026-05-03 21:52 23.71972 -103.89936 14781 ft 264 kts 303°
2026-05-03 21:52 23.73060 -103.91539 14504 ft 263 kts 303°
2026-05-03 21:52 23.74156 -103.93141 14229 ft 261 kts 303°
2026-05-03 21:52 23.75241 -103.94729 13952 ft 262 kts 303°
2026-05-03 21:53 23.76331 -103.96330 13682 ft 263 kts 303°
2026-05-03 21:53 23.77424 -103.97936 13405 ft 263 kts 304°
2026-05-03 21:53 23.78516 -103.99539 13127 ft 263 kts 304°
2026-05-03 21:53 23.79608 -104.01143 12857 ft 263 kts 304°
2026-05-03 21:54 23.80702 -104.02751 12579 ft 263 kts 304°
2026-05-03 21:54 23.81791 -104.04352 12303 ft 262 kts 304°
2026-05-03 21:54 23.82878 -104.05950 12034 ft 261 kts 304°
2026-05-03 21:54 23.83980 -104.07489 11983 ft 254 kts 309°
2026-05-03 21:55 23.85236 -104.08800 11989 ft 250 kts 316°
2026-05-03 21:55 23.86525 -104.10047 11987 ft 245 kts 315°
2026-05-03 21:55 23.87754 -104.11330 11985 ft 242 kts 313°
2026-05-03 21:55 23.88949 -104.12619 11986 ft 240 kts 313°
2026-05-03 21:56 23.90140 -104.13890 11983 ft 238 kts 313°
2026-05-03 21:56 23.91331 -104.15148 11985 ft 238 kts 313°
2026-05-03 21:56 23.92517 -104.16401 11985 ft 237 kts 313°
2026-05-03 21:56 23.93698 -104.17654 11978 ft 236 kts 313°
2026-05-03 21:57 23.94879 -104.18906 11989 ft 237 kts 313°
2026-05-03 21:57 23.96064 -104.20163 11984 ft 237 kts 313°
2026-05-03 21:57 23.97247 -104.21416 11975 ft 237 kts 313°
2026-05-03 21:57 23.98425 -104.22665 11987 ft 236 kts 313°
2026-05-03 21:58 23.99591 -104.23902 11985 ft 236 kts 313°
2026-05-03 21:58 24.00766 -104.25149 11989 ft 235 kts 313°
2026-05-03 21:58 24.01941 -104.26397 11979 ft 236 kts 313°
2026-05-03 21:58 24.03114 -104.27643 11985 ft 235 kts 313°
2026-05-03 21:59 24.04231 -104.28829 11989 ft 233 kts 314°
2026-05-03 21:59 24.05394 -104.30064 11977 ft 231 kts 313°
2026-05-03 21:59 24.06539 -104.31281 11979 ft 229 kts 313°
2026-05-03 21:59 24.07713 -104.32531 11656 ft 239 kts 313°
2026-05-03 22:00 24.08910 -104.33803 11341 ft 240 kts 314°
2026-05-03 22:00 24.10113 -104.35083 10984 ft 241 kts 314°
2026-05-03 22:00 24.11307 -104.36353 10640 ft 236 kts 314°
2026-05-03 22:00 24.12468 -104.37586 10283 ft 229 kts 314°
2026-05-03 22:01 24.13597 -104.38789 9937 ft 225 kts 314°
2026-05-03 22:01 24.14715 -104.39969 9602 ft 220 kts 316°
2026-05-03 22:01 24.15923 -104.40988 9071 ft 225 kts 324°
2026-05-03 22:01 24.17220 -104.41864 8905 ft 209 kts 327°
2026-05-03 22:02 24.18456 -104.42604 8610 ft 198 kts 330°
2026-05-03 22:02 24.19621 -104.43297 8200 ft 184 kts 321°
2026-05-03 22:02 24.20286 -104.44425 7992 ft 175 kts 277°
2026-05-03 22:02 24.19987 -104.45630 7910 ft 160 kts 231°
2026-05-03 22:03 24.19333 -104.46554 7882 ft 151 kts 231°
2026-05-03 22:03 24.18652 -104.47438 7665 ft 151 kts 225°
2026-05-03 22:03 24.17969 -104.48125 7424 ft 124 kts 217°
2026-05-03 22:03 24.17301 -104.48715 7166 ft 120 kts 216°
2026-05-03 22:04 24.16655 -104.49279 6962 ft 119 kts 216°
2026-05-03 22:04 24.16008 -104.49839 6748 ft 120 kts 216°
2026-05-03 22:04 24.15358 -104.50391 6568 ft 117 kts 216°
2026-05-03 22:04 24.14729 -104.50935 6412 ft 112 kts 217°
2026-05-03 22:05 24.14119 -104.51461 6242 ft 112 kts 214°
2026-05-03 22:05 24.13508 -104.51972 6131 ft 105 kts 217°
2026-05-03 22:05 24.12997 -104.52408 6107 ft 82 kts 216°
2026-05-03 22:05 24.12677 -104.52681 6108 ft 43 kts 217°
2026-05-03 22:06 24.12461 -104.52870 6109 ft 34 kts 218°
2026-05-03 22:06 24.12321 -104.52988 6102 ft 23 kts 226°
2026-05-03 22:06 24.12349 -104.53096 6102 ft 17 kts 310°
2026-05-03 22:06 24.12410 -104.53177 6109 ft 11 kts 308°
2026-05-03 22:07 24.12460 -104.53248 6107 ft 13 kts 309°
2026-05-03 22:07 24.12499 -104.53315 6104 ft 11 kts 277°
2026-05-03 22:07 24.12452 -104.53378 6107 ft 12 kts 228°
2026-05-03 22:07 24.12443 -104.53423 6109 ft 1 kts 44°
2026-05-03 22:08 24.12451 -104.53416 6102 ft 2 kts 38°
2026-05-03 22:08 24.12452 -104.53415 6102 ft 0 kts 38°